[[{"header":{"parameterUnit":"m.s-1","parameterCategory":1,"la1":30.2991,"la2":30.254,"lo1":-89.0895,"lo2":-89.0444,"dy":0.0017,"dx":0.0017,"nx":28,"ny":28,"refTime":"2025-08-31T09:00:00:Z","depth":0,"parameterNumber":2,"parameterNumberName":"U-component_of_WINDS"},"data":[0,0,0,0,0,0,0,0,0,0,0,0,0,0,0,0,0,0,0,0,0,0,0,0,0,0,0,0,0,0,0,0,0,0,0,0,0,0,0,0,0,0,0,0,0,0,0,0,0,0,0,0,0,0,0,0,0,0,-3.6793,-3.6793,0,-3.6801,-3.6801,-3.6801,-3.6697,-3.6694,-3.6691,-3.6688,-3.6696,-3.6699,-3.6702,0,0,0,0,0,0,0,0,0,0,0,0,0,-3.6688,-3.6691,-3.6793,-3.6793,-3.6793,-3.6801,-3.6801,-3.6801,-3.6697,-3.6694,-3.669,-3.6687,-3.6696,-3.6699,-3.6702,0,0,0,0,0,0,0,0,0,0,0,0,0,-3.6719,-3.6691,-3.6793,-3.6742,-3.6738,-3.6801,-3.6801,-3.6801,-3.6698,-3.6694,-3.669,-3.6686,-3.6694,-3.6699,-3.6703,-3.6814,0,0,-3.6716,-3.6718,0,0,0,0,0,0,0,0,-3.6717,-3.6723,-3.6749,-3.6746,-3.6741,-3.6743,-3.6767,-3.6805,-3.6699,-3.6713,-3.6688,-3.6683,-3.6716,-3.6718,-3.6729,-3.6815,-3.6815,-3.6716,-3.6719,-3.6721,-3.6722,0,0,0,0,0,0,0,-3.6715,-3.6722,-3.6796,-3.675,-3.6745,-3.6719,-3.6719,-3.6774,-3.6738,-3.6712,-3.6704,-3.6706,-3.6712,-3.6725,-3.6728,-3.6815,-3.6716,-3.672,-3.6723,-3.6724,-3.6993,-3.6998,0,0,0,0,0,0,-3.672,-3.6721,-3.6795,-3.6796,-3.6718,-3.6725,-3.6724,-3.6747,-3.6737,-3.6732,-3.671,-3.6702,-3.6719,-3.6723,-3.6728,-3.6857,-3.6721,-3.6725,-3.6727,-3.6989,-3.6994,-3.6999,0,0,0,0,0,0,-3.6718,-3.6727,-3.6795,-3.6756,-3.6763,-3.6731,-3.6757,-3.6749,-3.6761,-3.6736,-3.6729,-3.6729,-3.6716,-3.6722,-3.6794,-3.6856,-3.6727,-3.6731,-3.6983,-3.6991,-3.6997,-3.7117,0,0,0,0,0,0,-3.6715,-3.6727,-3.6769,-3.6758,-3.6765,-3.6861,-3.6761,-3.6752,-3.6769,-3.6758,-3.6752,-3.6747,-3.6713,-3.6788,-3.6798,-3.686,-3.6734,-3.6978,-3.6987,-3.6995,-3.7107,-3.7127,-3.7144,0,0,0,0,0,-3.6712,-3.6803,-3.6772,-3.6781,-3.6817,-3.6865,-3.6869,-3.6828,-3.6775,-3.6816,-3.68,-3.6747,-3.6848,-3.6796,-3.6807,-3.687,-3.6973,-3.6984,-3.6994,-3.7099,-3.7123,-3.7144,0,0,0,0,0,0,-3.6821,-3.68,-3.6766,-3.6855,-3.6863,-3.6847,-3.6898,-3.6855,-3.6878,-3.6866,-3.6815,-3.6815,-3.6895,-3.689,-3.6832,-3.6978,-3.6901,-3.6914,-3.6978,-3.7001,-3.7019,-3.7017,-3.6737,0,0,0,0,0,-3.6856,-3.6897,-3.6876,-3.6957,-3.6963,-3.6931,-3.695,-3.6918,-3.6923,-3.6926,-3.6915,-3.6922,-3.6955,-3.6978,-3.7007,-3.7107,-3.7104,-3.7157,-3.7175,-3.719,-3.7201,-3.7254,-3.7276,-3.7033,-3.7033,-3.7033,0,0,-3.6928,-3.6921,-3.695,-3.6979,-3.6981,-3.7024,-3.6933,-3.6983,-3.7014,-3.6933,-3.6999,-3.6993,-3.6997,-3.7084,-3.7121,-3.7082,-3.7268,-3.7203,-3.7216,-3.7218,-3.7267,-3.729,-3.731,-3.704,-3.7039,-3.7038,0,0,-3.708,-3.708,-3.7147,-3.7151,-3.7155,-3.7134,-3.715,-3.7142,-3.7133,-3.72,-3.714,-3.7177,-3.7236,-3.7241,-3.7252,-3.7409,-3.7361,-3.742,-3.7516,-3.7567,-3.7586,-3.7603,-3.7658,-3.7679,-3.7432,-3.7432,-3.7432,0,-3.7168,-3.7231,-3.7187,-3.7241,-3.7255,-3.7185,-3.7253,-3.7259,-3.7273,-3.7284,-3.7241,-3.7313,-3.7311,-3.7398,-3.7437,-3.7448,-3.7465,-3.7419,-3.7587,-3.7604,-3.7619,-3.767,-3.7691,-3.7439,-3.7439,-3.7438,-3.7437,0,-3.7339,-3.7383,-3.7437,-3.7452,-3.7473,-3.7534,-3.75,-3.7526,-3.7494,-3.7477,-3.7546,-3.7542,-3.7569,-3.7588,-3.7556,-3.767,-3.7646,-3.7596,-3.7517,-3.765,-3.7697,-3.7717,-3.7449,-3.7447,-3.7445,-3.7443,0,0,-3.7558,-3.7549,-3.757,-3.7576,-3.7576,-3.761,-3.7668,-3.7695,-3.7718,-3.7731,-3.7778,-3.783,-3.7784,-3.7796,-3.7765,-3.7811,-3.7935,-3.7755,-3.7754,-3.7787,-3.8059,-3.8095,-3.8119,-3.7904,-3.7907,-3.791,-3.8058,0,-3.7705,-3.7802,-3.7765,-3.7866,-3.7906,-3.7841,-3.7892,-3.7898,-3.7884,-3.7916,-3.7901,-3.7939,-3.7876,-3.7883,-3.7925,-3.7911,-3.7988,-3.79,-3.7946,-3.7948,-3.7945,-3.8144,-3.8182,-3.8322,-3.8077,-3.808,-3.8082,0,-3.7888,-3.7909,-3.8013,-3.8007,-3.8023,-3.8068,-3.809,-3.8123,-3.8128,-3.8115,-3.813,-3.809,-3.8146,-3.807,-3.8147,-3.8088,-3.8105,-3.8101,-3.8106,-3.8107,-3.8022,-3.8149,-3.8366,-3.8386,-3.8111,-3.8109,-3.8107,0,-3.8036,-3.809,-3.8159,-3.8166,-3.8161,-3.8195,-3.8195,-3.8197,-3.8215,-3.8235,-3.8247,-3.8273,-3.8287,-3.8309,-3.8277,-3.8224,-3.8358,-3.828,-3.8348,-3.8349,-3.8377,-3.8376,-3.8598,-3.8393,-3.8392,-3.8392,-3.8391,0,-3.8202,-3.8268,-3.8225,-3.8267,-3.834,-3.8298,-3.8371,-3.8363,-3.8366,-3.8406,-3.8352,-3.8391,-3.8347,-3.8382,-3.8357,-3.8425,-3.8432,-3.8423,-3.8415,-3.8426,-3.8427,-3.8435,-3.8424,-3.8397,-3.8396,-3.8395,-3.8394,0,-3.8378,-3.8352,-3.8423,-3.8413,-3.8412,-3.8466,-3.8457,-3.8496,-3.848,-3.8531,-3.8541,-3.8515,-3.8553,-3.8524,-3.8562,-3.8546,-3.8634,-3.8614,-3.8632,-3.8625,-3.8695,-3.8688,-3.8929,-3.8958,-3.8736,-3.8738,-3.874,0,-3.8485,-3.8534,-3.853,-3.8553,-3.8556,-3.8594,-3.8613,-3.8575,-3.8597,-3.8608,-3.8646,-3.868,-3.8704,-3.8769,-3.8754,-3.8782,-3.8761,-3.8844,-3.8765,-3.8775,-3.876,-3.8757,-3.8761,-3.8859,-3.8861,-3.8863,-3.8865,0,-3.8677,-3.8662,-3.8691,-3.8717,-3.8742,-3.876,-3.8774,-3.8796,-3.8757,-3.8785,-3.8823,-3.8843,-3.8882,-3.8916,-3.894,-3.8939,-3.8896,-3.8891,-3.8908,-3.8918,-3.8926,-3.8922,-3.8673,-3.8885,-3.8883,-3.8881,-3.888,-3.8879,-3.882,-3.8861,-3.8865,-3.89,-3.8906,-3.8921,-3.8957,-3.8946,-3.8977,-3.9006,-3.8982,-3.9028,-3.9034,-3.9061,-3.9066,-3.9102,-3.9068,-3.9093,-3.9099,-3.9106,-3.9115,-3.8923,-3.9107,-3.9106,-3.9105,-3.9105,-3.9105,0,-3.9008,-3.9008,-3.9041,-3.9062,-3.909,-3.9048,-3.9062,-3.9087,-3.9129,-3.9138,-3.9164,-3.9209,-3.9242,-3.923,-3.926,-3.9291,-3.9272,-3.93,-3.9296,-3.9296,-3.9144,-3.9126,-3.9314,-3.9314,-3.9314,-3.9314,-3.9314,-3.9314,-3.9109,-3.9176,-3.9162,-3.9231,-3.923,-3.9275,-3.9287,-3.93,-3.9307,-3.9359,-3.9387,-3.9379,-3.938,-3.9409,-3.9438,-3.9434,-3.9447,-3.9482,-3.947,-3.9328,-3.9307,-3.9287,-3.9269,-3.9485,-3.9485,-3.9619,-3.962,-3.9621]},{"header":{"parameterUnit":"m.s-1","parameterCategory":1,"la1":30.2991,"la2":30.254,"lo1":-89.0895,"lo2":-89.0444,"dy":0.0017,"dx":0.0017,"nx":28,"ny":28,"refTime":"2025-08-31T09:00:00:Z","depth":0,"parameterNumber":3,"parameterNumberName":"V-component_of_WINDS"},"data":[0,0,0,0,0,0,0,0,0,0,0,0,0,0,0,0,0,0,0,0,0,0,0,0,0,0,0,0,0,0,0,0,0,0,0,0,0,0,0,0,0,0,0,0,0,0,0,0,0,0,0,0,0,0,0,0,0,0,1.8725,1.8724,0,1.8682,1.8682,1.8681,1.8689,1.8689,1.869,1.8691,1.8642,1.864,1.8638,0,0,0,0,0,0,0,0,0,0,0,0,0,1.8809,1.8807,1.8725,1.8724,1.8724,1.8682,1.8682,1.8681,1.8689,1.869,1.869,1.8691,1.8642,1.864,1.8637,0,0,0,0,0,0,0,0,0,0,0,0,0,1.877,1.8807,1.8725,1.8723,1.8722,1.8682,1.8682,1.8681,1.8688,1.869,1.8691,1.8692,1.8643,1.864,1.8637,1.8595,0,0,1.8628,1.8627,0,0,0,0,0,0,0,0,1.8772,1.8766,1.8724,1.8723,1.8722,1.8692,1.8693,1.8652,1.8688,1.8701,1.8691,1.8692,1.8657,1.8653,1.8642,1.8593,1.8591,1.8628,1.8626,1.8624,1.8624,0,0,0,0,0,0,0,1.8774,1.8768,1.8708,1.8723,1.8722,1.8722,1.8718,1.8685,1.8673,1.87,1.87,1.8696,1.8657,1.8645,1.8641,1.859,1.8628,1.8625,1.8623,1.8622,1.8505,1.8504,0,0,0,0,0,0,1.8779,1.8771,1.8709,1.8707,1.875,1.872,1.8715,1.87,1.8673,1.867,1.8695,1.8696,1.865,1.8645,1.8639,1.8589,1.8624,1.8622,1.862,1.8506,1.8505,1.8503,0,0,0,0,0,0,1.878,1.8773,1.8711,1.8739,1.8731,1.8717,1.8701,1.8699,1.8687,1.8669,1.8667,1.8685,1.8651,1.8644,1.8607,1.8587,1.862,1.8617,1.8508,1.8506,1.8504,1.8487,0,0,0,0,0,0,1.8783,1.8774,1.8758,1.8738,1.8729,1.868,1.8699,1.8697,1.8683,1.8684,1.866,1.8657,1.8651,1.8611,1.8604,1.8583,1.8615,1.8509,1.8507,1.8505,1.8489,1.8484,1.8481,0,0,0,0,0,1.8786,1.8754,1.8758,1.875,1.871,1.8679,1.8674,1.8669,1.8681,1.8665,1.8654,1.8658,1.8591,1.8607,1.8599,1.8577,1.8511,1.8508,1.8505,1.8491,1.8485,1.8481,0,0,0,0,0,0,1.8769,1.8751,1.8755,1.8716,1.8699,1.868,1.866,1.8663,1.8641,1.8643,1.8637,1.8631,1.8594,1.8582,1.8601,1.8536,1.8552,1.8548,1.8544,1.8539,1.8535,1.8538,1.8613,0,0,0,0,0,1.8762,1.8739,1.8724,1.8691,1.8683,1.8673,1.8659,1.8657,1.8639,1.8631,1.8617,1.8597,1.8572,1.8555,1.8531,1.8488,1.8482,1.8469,1.8465,1.8462,1.8457,1.8434,1.8427,1.8494,1.8494,1.8494,0,0,1.8744,1.8732,1.8718,1.8687,1.8674,1.865,1.8666,1.864,1.8621,1.8626,1.8591,1.858,1.8558,1.8518,1.85,1.8507,1.8438,1.8458,1.8456,1.8453,1.843,1.8424,1.8418,1.8492,1.8492,1.8493,0,0,1.8701,1.869,1.8661,1.8648,1.8629,1.8623,1.8616,1.8597,1.8591,1.8556,1.856,1.8537,1.8494,1.8478,1.8464,1.8417,1.8419,1.8409,1.8386,1.8364,1.8358,1.8354,1.8336,1.833,1.8405,1.8405,1.8405,0,1.8681,1.8646,1.8645,1.8619,1.8605,1.8612,1.8582,1.8569,1.8542,1.8532,1.8541,1.8488,1.8474,1.843,1.8419,1.8408,1.8399,1.8411,1.836,1.8355,1.835,1.8333,1.8327,1.8404,1.8404,1.8404,1.8404,0,1.8623,1.8598,1.8578,1.8554,1.8538,1.851,1.8504,1.8488,1.8488,1.8481,1.8445,1.8429,1.8401,1.8392,1.839,1.8348,1.8353,1.8361,1.8377,1.8343,1.8327,1.832,1.8402,1.8403,1.8403,1.8403,0,0,1.8565,1.8543,1.8535,1.8525,1.8505,1.8486,1.8458,1.8434,1.842,1.8401,1.8377,1.8342,1.835,1.8334,1.8332,1.8312,1.8275,1.8323,1.8322,1.8313,1.8226,1.8219,1.8212,1.8278,1.8277,1.8276,1.8228,0,1.8518,1.8471,1.8471,1.8427,1.8404,1.8411,1.8387,1.8372,1.8365,1.8343,1.8335,1.831,1.8323,1.8313,1.8295,1.8284,1.8257,1.8287,1.8253,1.8252,1.8257,1.8204,1.8196,1.8151,1.8222,1.8221,1.822,0,1.8457,1.8439,1.8394,1.8379,1.8369,1.8348,1.8326,1.8306,1.8289,1.8285,1.8269,1.827,1.8241,1.826,1.8219,1.8239,1.8226,1.8219,1.8217,1.8212,1.8233,1.8196,1.8137,1.813,1.821,1.8211,1.8212,0,1.8418,1.8383,1.8351,1.8342,1.8324,1.8309,1.83,1.8284,1.827,1.8251,1.8241,1.8218,1.8205,1.8186,1.8181,1.8195,1.814,1.8158,1.8134,1.8134,1.812,1.8121,1.8057,1.8114,1.8114,1.8115,1.8115,0,1.8365,1.8337,1.8334,1.8314,1.8282,1.8282,1.825,1.8242,1.8229,1.8207,1.8212,1.819,1.8186,1.8163,1.8159,1.8125,1.8119,1.8114,1.8113,1.8113,1.8113,1.8102,1.8105,1.8113,1.8113,1.8114,1.8114,0,1.8315,1.8312,1.8278,1.8265,1.8261,1.8238,1.8226,1.8206,1.8201,1.8173,1.8167,1.8158,1.8132,1.8126,1.8094,1.8091,1.8051,1.8054,1.8057,1.8057,1.8033,1.8035,1.7958,1.7948,1.8014,1.8013,1.8013,0,1.8281,1.8259,1.8245,1.8232,1.8223,1.8201,1.8187,1.8187,1.8172,1.8152,1.8134,1.811,1.809,1.8048,1.8038,1.8014,1.8015,1.799,1.8011,1.8012,1.8013,1.8014,1.8011,1.7985,1.7984,1.7984,1.7983,0,1.822,1.822,1.8201,1.8182,1.8166,1.815,1.8135,1.8123,1.812,1.8103,1.8078,1.8063,1.8033,1.8007,1.7984,1.7974,1.7977,1.7977,1.797,1.7969,1.7971,1.7969,1.8045,1.7978,1.7979,1.7979,1.7979,1.798,1.8175,1.8157,1.8144,1.8123,1.8112,1.8099,1.808,1.8074,1.8054,1.803,1.8031,1.8003,1.7987,1.7956,1.7945,1.7922,1.793,1.792,1.7917,1.7914,1.7911,1.7977,1.7918,1.7918,1.7918,1.7918,1.7919,0,1.8114,1.8107,1.8087,1.8067,1.8051,1.8059,1.8043,1.8028,1.8004,1.799,1.7971,1.7942,1.7919,1.7908,1.7884,1.7868,1.7869,1.7862,1.7862,1.7859,1.7907,1.7915,1.7861,1.7861,1.7861,1.7861,1.7861,1.7861,1.8079,1.8049,1.8048,1.8012,1.8004,1.7979,1.7969,1.7956,1.7945,1.7913,1.7895,1.7889,1.7875,1.7851,1.783,1.7827,1.7817,1.7809,1.7806,1.785,1.7856,1.7861,1.7869,1.7807,1.7807,1.7761,1.776,1.776]}]]